Regional Weather Roundup
Issued by NWS

Home | Current Version | Previous Version | Text Only | Print | Product List | Glossary On
Versions: 1 2 3 4 5 6 7 8 9 10 11 12 13 14 15 16 17 18 19 20 21 22 23 24 25 26 27 28 29 30 31 32 33 34 35 36 37 38 39 40 41 42 43 44 45 46 47 48 49 50
000
ASUS44 KFWD 271715
RWRTX
NORTH TEXAS HOURLY WEATHER ROUNDUP
NATIONAL WEATHER SERVICE FORT WORTH TX
1200 PM CDT MON MAR 27 2017

NOTE: "FAIR" INDICATES FEW OR NO CLOUDS BELOW 12,000 FEET WITH NO
SIGNIFICANT WEATHER AND/OR OBSTRUCTIONS TO VISIBILITY.

TXZ118-119-271800-
DALLAS/FORT WORTH METROPLEX

CITY           SKY/WX    TMP DP  RH WIND       PRES   REMARKS
DFW AIRPORT    PTSUNNY   61  52  72 NW9       29.94R
DALLAS LOVE    PTSUNNY   62  52  69 N12       29.95R
FTW MEACHAM    CLOUDY    62  50  64 NW9       29.95S
DAL-EXECUTIVE  SUNNY     65  54  67 NW9       29.93S
FTW-ALLIANCE   CLOUDY    59  52  77 NW7       29.96R
FTW-NAS-JRB    CLOUDY    61  51  70 N12       29.96S
FTW-SPINKS     SUNNY     64  52  63 N8        29.96R
ARLINGTON      SUNNY     63  51  65 NW8       29.94S
GRAND PRAIRIE  SUNNY     63  52  67 NW7       29.97R
ADDISON        CLOUDY    59  52  77 NW10      29.96R
MESQUITE       SUNNY     66  54  63 NW7       29.94R
LANCASTER      SUNNY     66  54  66 NW9       29.94S
$$

TXZ091>094-102>105-117-120-121-131>134-271800-
NORTH CENTRAL TEXAS

CITY           SKY/WX    TMP DP  RH WIND       PRES   REMARKS
SHRMAN/DENISON CLOUDY    59  53  79 NW9       29.96S
GAINESVILLE    MOSUNNY   61  51  69 N9        29.97S
BOWIE          MOSUNNY   62  52  69 N8        29.97S
BRIDGEPORT     CLOUDY    58  51  75 N9        29.99R
DECATUR        CLOUDY    59  51  75 NW8       29.96S
DENTON         CLOUDY    59  53  80 NW7       29.95S
MCKINNEY       CLOUDY    59  55  87 NW7       29.95R
BONHAM         CLOUDY    57  52  82 NW9       29.95R
GREENVILLE     MOSUNNY   64  52  63 NW10      29.94R
ROCKWALL       MOSUNNY   62  54  73 NW8       29.94S
TERRELL        MOSUNNY   68  53  58 NW10      29.93S
WAXAHACHIE     SUNNY     66  54  65 N7        29.95S
CLEBURNE       SUNNY     66  55  68 N10       29.96S
GRANBURY       SUNNY     66  51  58 NW9       29.97S
$$

TXZ083>090-098>101-113>116-127>130-139>142-154-155-271800-
WESTERN NORTH TEXAS

CITY           SKY/WX    TMP DP  RH WIND       PRES   REMARKS
WICHITA FALLS  SUNNY     63  48  58 N9G17     29.97F
WF-KICKAPOO    SUNNY     61  48  62 NW6       29.99F
VERNON         SUNNY     62  41  46 NE6G16    30.00S
ABILENE        SUNNY     61  46  57 N10       29.99F
GRAHAM         SUNNY     64  50  59 N7        29.96F
BRECKENRIDGE   SUNNY     64  46  51 N6        29.97F
CISCO          SUNNY     63  46  55 N8G15     29.98S
RANGER         SUNNY     64  46  52 NW8       29.97F
MINERAL WELLS  SUNNY     63  50  62 N12       29.95F
STEPHENVILLE   SUNNY     65  48  54 NW8       29.98S
COMANCHE       SUNNY     65  49  56 NW10      29.96F
BROWNWOOD      SUNNY     66  46  48 NW8       29.97S
COLEMAN        SUNNY     65  45  48 N6        29.98S
$$

TXZ143>147-156>162-174-175-271800-
CENTRAL TEXAS

CITY           SKY/WX    TMP DP  RH WIND       PRES   REMARKS
WACO           CLOUDY    68  56  65 NW7       29.93S
WACO-MCGREGOR  CLOUDY    68  57  68 N7        29.93F
HILLSBORO      MOSUNNY   67  57  71 NW9       29.93F
CORSICANA      CLOUDY    72  62  71 N9        29.92F
MEXIA          CLOUDY    73  65  76 W6        29.90S
HEARNE         CLOUDY    71  69  92 CALM      29.94R
CAMERON        PTSUNNY   76  69  77 SW5       29.91S
TEMPLE         SUNNY     70  63  78 NW7       29.93S
KILLEEN        MOSUNNY   68  57  68 N10       29.92S
KILLEEN-SKYLRK CLOUDY    70  59  68 N9        29.93S
FORT HOOD      MOSUNNY   68  59  73 NW8       29.91S
GATESVILLE     SUNNY     68  54  60 CALM      29.96S
HAMILTON       SUNNY     66  52  61 N8        29.96F
LAMPASAS       SUNNY     71  61  70 N6        29.92F
$$

TXZ095>097-106>112-122>126-135>138-148>153-164>167-271800-
EAST TEXAS

CITY           SKY/WX    TMP DP  RH WIND       PRES   REMARKS
PARIS          CLOUDY    61  54  77 NW12      29.93R
SULPHUR SPRNGS CLOUDY    63  56  78 NW8       29.95R
MOUNT PLEASANT MOSUNNY   73  63  72 SW12      29.91R
GILMER         CLOUDY    72  65  79 SW3       29.90S
MINEOLA        CLOUDY    72  64  78 W5        29.91S
TYLER          CLOUDY    73  67  81 SW7       29.90S
LONGVIEW       PTSUNNY   73  67  81 SW13      29.90S
MARSHALL       CLOUDY    73  64  75 SW10      29.92S
ATHENS         CLOUDY    70  66  88 W5        29.90S
PALESTINE      CLOUDY    73  68  83 SW9       29.92F
JACKSONVILLE   CLOUDY    72  66  82 SW10      29.94S
HENDERSON      CLOUDY    72  65  78 SW7       29.92S
CENTER         CLOUDY    80  68  67 SW5       29.92F
NACOGDOCHES    CLOUDY    73  64  73 SW7       29.91S
LUFKIN         CLOUDY    75  66  73 SW12      29.92S
$$

SUPPLEMENTAL OBSERVATIONS (CENTRAL)

CITY           SKY/WX    TMP DP  RH WIND       PRES   REMARKS
DENISON DAM      N/A     57  50  77 NW9         N/A
CADDO GRASSLND   N/A     61  54  77 N6          N/A
PAT MAYSE LAKE   N/A     59  57  94 W9          N/A
GREENVILLE       N/A     63  55  77 N9          N/A
CEDAR HILL       N/A     68  52  56 N6          N/A
ATHENS           N/A     73  64  73 W3          N/A
MCGREGOR         N/A     70  63  78 N3          N/A
TEMPLE           N/A     73  66  78 NW3         N/A
$$

SUPPLEMENTAL OBSERVATIONS (WEST)

CITY           SKY/WX    TMP DP  RH WIND       PRES   REMARKS
MILLERS CREEK    N/A     63  46  55 N8G16       N/A
POSSUM KINGDOM   N/A     66  48  52 N9          N/A
LBJ GRASSLAND    N/A     63  52  67 NW8         N/A
GRANBURY         N/A     64  50  59 N12         N/A
HAMBY            N/A     64  45  48 N7          N/A
IVIE RESERVOIR   N/A     68  46  45 NW6         N/A
COLORADO BEND    N/A     72  54  53 N5          N/A
$$

SUPPLEMENTAL OBSERVATIONS (EAST)

CITY           SKY/WX    TMP DP  RH WIND       PRES   REMARKS
CLARKSVILLE      N/A     66  59  77 W5G18       N/A
TEXARKANA        N/A     73  64  73 SW7G16      N/A
LINDEN           N/A     73  64  73 W6          N/A
GILMER           N/A     73  64  73 W8          N/A
HENDERSON        N/A     73  66  78 SW7G18      N/A
LUFKIN           N/A     77  66  69 MISG        N/A
N SABINE NF      N/A     81  66  61 MISG        N/A
S SABINE NF      N/A     79  64  61 N5          N/A
$$

SUPPLEMENTAL OBSERVATIONS ARE A COLLECTION OF AUTOMATED INSTRUMENTS
THAT ARE MAINTAINED BY A VARIETY OF FEDERAL AND STATE AGENCIES.
CERTAIN ELEMENTS...SUCH AS HUMIDITY VALUES AND SUSTAINED WIND
SPEEDS...MAY BE APPROXIMATED.





USA.gov is the U.S. government's official web portal to all federal, state and local government web resources and services.